| time (UTC) | temp C | wind direction | speed KPH | gust KPH | rain 1hr cm | rain 24hr cm | rain mn cm | humidity % | barometer mb |
| 20260504081526 | 11 | 28 | 9.7 | 30.6 | 0.00 | 0.00 | 0.00 | 58 | 1000.2 |
| 20260504050010 | 13 | 259 | 9.7 | 24.1 | 0.00 | 0.00 | 0.00 | 47 | 999.5 |
| 20260504044518 | 13 | 243 | 12.9 | 25.7 | 0.00 | 0.00 | 0.00 | 47 | 999.6 |
| 20260504043020 | 13 | 263 | 8.0 | 20.9 | 0.00 | 0.00 | 0.00 | 48 | 999.6 |
| 20260504041523 | 13 | 225 | 8.0 | 16.1 | 0.00 | 0.00 | 0.00 | 48 | 999.9 |
| 20260504040007 | 13 | 232 | 8.0 | 14.5 | 0.00 | 0.00 | 0.00 | 48 | 1000.2 |
| 20260504034511 | 13 | 235 | 4.8 | 17.7 | 0.00 | 0.00 | 0.00 | 47 | 1000.5 |
| 20260504033016 | 13 | 254 | 9.7 | 17.7 | 0.00 | 0.00 | 0.00 | 46 | 1000.7 |
| 20260504031526 | 13 | 242 | 8.0 | 20.9 | 0.00 | 0.00 | 0.00 | 45 | 1001.0 |
| 20260504030014 | 14 | 229 | 6.4 | 16.1 | 0.00 | 0.00 | 0.00 | 44 | 1001.2 |
| 20260504024516 | 14 | 219 | 8.0 | 14.5 | 0.00 | 0.00 | 0.00 | 43 | 1001.3 |
| 20260504023019 | 15 | 250 | 6.4 | 14.5 | 0.00 | 0.00 | 0.00 | 41 | 1001.5 |
| 20260504021524 | 15 | 240 | 8.0 | 17.7 | 0.00 | 0.00 | 0.00 | 38 | 1001.6 |
| 20260504020036 | 16 | 233 | 6.4 | 14.5 | 0.00 | 0.00 | 0.00 | 37 | 1001.8 |
| 20260504014518 | 17 | 254 | 4.8 | 14.5 | 0.00 | 0.00 | 0.00 | 34 | 1002.1 |
| 20260504013025 | 18 | 258 | 3.2 | 11.3 | 0.00 | 0.00 | 0.00 | 32 | 1002.4 |
| 20260504011524 | 19 | 281 | 4.8 | 14.5 | 0.00 | 0.00 | 0.00 | 30 | 1002.7 |
| 20260504010026 | 20 | 244 | 6.4 | 20.9 | 0.00 | 0.00 | 0.00 | 28 | 1003.0 |
| 20260504004534 | 20 | 260 | 9.7 | 24.1 | 0.00 | 0.00 | 0.00 | 27 | 1003.3 |
| 20260504003023 | 21 | 284 | 12.9 | 22.5 | 0.00 | 0.00 | 0.00 | 25 | 1003.6 |
| 20260504001534 | 21 | 268 | 9.7 | 29.0 | 0.00 | 0.00 | 0.00 | 25 | 1003.9 |
| 20260504000028 | 21 | 275 | 14.5 | 27.4 | 0.00 | 0.00 | 0.00 | 24 | 1004.1 |
| 20260503234519 | 21 | 300 | 14.5 | 32.2 | 0.00 | 0.00 | 0.00 | 22 | 1004.3 |
| 20260503233023 | 22 | 267 | 9.7 | 37.0 | 0.00 | 0.00 | 0.00 | 22 | 1004.5 |
| 20260503231528 | 22 | 347 | 6.4 | 33.8 | 0.00 | 0.00 | 0.00 | 22 | 1004.7 |
| 20260503230012 | 22 | 265 | 16.1 | 33.8 | 0.00 | 0.00 | 0.00 | 21 | 1004.8 |
| 20260503224522 | 22 | 256 | 17.7 | 30.6 | 0.00 | 0.00 | 0.00 | 22 | 1004.8 |
| 20260503223023 | 22 | 285 | 12.9 | 20.9 | 0.00 | 0.00 | 0.00 | 22 | 1005.0 |
| 20260503221531 | 22 | 22 | 9.7 | 27.4 | 0.00 | 0.00 | 0.00 | 23 | 1005.4 |
| 20260503220027 | 22 | 269 | 14.5 | 25.7 | 0.00 | 0.00 | 0.00 | 23 | 1005.8 |
| 20260503214532 | 22 | 309 | 6.4 | 27.4 | 0.00 | 0.00 | 0.00 | 23 | 1005.9 |
| 20260503213032 | 22 | 304 | 9.7 | 29.0 | 0.00 | 0.00 | 0.00 | 26 | 1006.4 |
| 20260503211526 | 22 | 5 | 4.8 | 30.6 | 0.00 | 0.00 | 0.00 | 25 | 1006.7 |
| 20260503210019 | 22 | 258 | 4.8 | 24.1 | 0.00 | 0.00 | 0.00 | 26 | 1007.0 |
| 20260503204528 | 21 | 59 | 3.2 | 17.7 | 0.00 | 0.00 | 0.00 | 30 | 1007.3 |
| 20260503203025 | 22 | 344 | 4.8 | 16.1 | 0.00 | 0.00 | 0.00 | 29 | 1007.6 |
| 20260503201510 | 22 | 297 | 6.4 | 20.9 | 0.00 | 0.00 | 0.00 | 30 | 1007.9 |
| 20260503200008 | 21 | 9 | 3.2 | 16.1 | 0.00 | 0.00 | 0.00 | 31 | 1008.3 |
| 20260503194504 | 21 | 11 | 4.8 | 14.5 | 0.00 | 0.00 | 0.00 | 28 | 1008.6 |
| 20260503193008 | 21 | 15 | 3.2 | 16.1 | 0.00 | 0.00 | 0.00 | 28 | 1008.8 |
| 20260503191511 | 21 | 13 | 4.8 | 17.7 | 0.00 | 0.00 | 0.00 | 26 | 1009.1 |
| 20260503190014 | 21 | 265 | 3.2 | 24.1 | 0.00 | 0.00 | 0.00 | 32 | 1009.2 |
| 20260503184507 | 20 | 28 | 4.8 | 22.5 | 0.00 | 0.00 | 0.00 | 30 | 1009.4 |
| 20260503183011 | 21 | 316 | 3.2 | 17.7 | 0.00 | 0.00 | 0.00 | 35 | 1009.7 |
| 20260503181534 | 20 | 360 | 8.0 | 19.3 | 0.00 | 0.00 | 0.00 | 29 | 1010.0 |
| 20260503180027 | 20 | 17 | 8.0 | 22.5 | 0.00 | 0.00 | 0.00 | 30 | 1010.3 |
| 20260503174504 | 19 | 33 | 4.8 | 17.7 | 0.00 | 0.00 | 0.00 | 35 | 1010.7 |
| 20260503173009 | 19 | 355 | 3.2 | 17.7 | 0.00 | 0.00 | 0.00 | 36 | 1010.8 |
| 20260503171523 | 18 | 24 | 8.0 | 25.7 | 0.00 | 0.00 | 0.00 | 35 | 1011.0 |